This is the latest recevied weather packets stored in our database for station/object KC1BRV. If no packets are shown the sender has not sent any weather packets the latest 10 day(s).
| Time | Temp. | Humidity | Pressure | Rain* | Wind** | Luminosity | Snow |
|---|---|---|---|---|---|---|---|
| 1777981391 | 13.89° C | 81% | 1012.2 hPa | 0 mm | - | 131 W/m² | - |
| 1777981088 | 13.33° C | 82% | 1012.2 hPa | 0 mm | - | 102 W/m² | - |
| 1777980784 | 13.33° C | 83% | 1012.4 hPa | 0 mm | - | 77 W/m² | - |
| 1777980480 | 13.33° C | 84% | 1012.2 hPa | 0 mm | - | 84 W/m² | - |
| 1777980178 | 12.78° C | 84% | 1012.1 hPa | 0 mm | - | 68 W/m² | - |
| 1777979873 | 12.78° C | 85% | 1012.4 hPa | 0 mm | - | 69 W/m² | - |
| 1777979569 | 12.78° C | 86% | 1012.4 hPa | 0 mm | - | 56 W/m² | - |
| 1777979265 | 12.22° C | 86% | 1012.3 hPa | 0 mm | - | 54 W/m² | - |
| 1777978963 | 12.22° C | 87% | 1012.1 hPa | 0 mm | - | 52 W/m² | - |
| 1777978659 | 11.67° C | 89% | 1012.2 hPa | 0 mm | - | 51 W/m² | - |
| 1777978355 | 11.11° C | 90% | 1011.9 hPa | 0 mm | - | 43 W/m² | - |
| 1777978052 | 11.11° C | 91% | 1012.3 hPa | 0 mm | - | 40 W/m² | - |
| 1777977749 | 10.56° C | 91% | 1012.1 hPa | 0 mm | - | 34 W/m² | - |
| 1777977445 | 10.56° C | 92% | 1012.2 hPa | 0 mm | - | 31 W/m² | - |
| 1777977143 | 10.56° C | 92% | 1012 hPa | 0 mm | - | 27 W/m² | - |
| 1777976840 | 10.56° C | 93% | 1012.1 hPa | 0 mm | - | 24 W/m² | - |
| 1777976538 | 10° C | 93% | 1011.9 hPa | 0 mm | - | 22 W/m² | - |
| 1777976236 | 10° C | 93% | 1011.9 hPa | 0 mm | - | 20 W/m² | - |
| 1777975932 | 10° C | 93% | 1011.9 hPa | 0 mm | - | 17 W/m² | - |
| 1777975628 | 10° C | 94% | 1011.7 hPa | 0 mm | - | 15 W/m² | - |
| 1777975326 | 10° C | 94% | 1011.7 hPa | 0 mm | - | 11 W/m² | - |
| 1777975022 | 10° C | 94% | 1011.6 hPa | 0 mm | - | 8 W/m² | - |
| 1777974720 | 10° C | 93% | 1011.7 hPa | 0 mm | - | 6 W/m² | - |
| 1777974415 | 10° C | 93% | 1011.9 hPa | 0 mm | - | 4 W/m² | - |
| 1777974112 | 10° C | 93% | 1011.7 hPa | 0 mm | - | 3 W/m² | - |
* Rain latest hour (hover to see other rain measurements)
** Current wind speed in m/s (hover to see current wind gust speed)